SCP
0 0 0 0 0 0 -0 0 0 0 0 0 0 0 0 -0 -0 -0 -0 0 0 0 0 0 0 0 0 0 0 0 0 0 0 0 0 0 0 0 0 0 0 0 0 0 0 0 0 0 0
0 0 0 0 0 0 -0 0 0 0 0 0 0 0 0 -0 -0 -0 0 0 0 0 0 0 0 0 0 0 0 0 0 0 0 0 0 0 0 0 0 0 0 0 0 0 0 0 0 0 0
0 0 0 0 0 -0 -0 0 0 0 0 0 0 0 0 -0 -0 0 0 0 0 0 0 0 0 0 0 0 0 0 0 0 0 0 0 0 0 0 0 0 0 0 0 0 0 0 0 0 0
0 0 0 0 0 0 0 0 0 0 0 0 0 0 0 0 0 0 0 0 0 0 0 0 0 0 0 0 0 0 0 0 0 0 0 0 0 0 0 0 0 0 0 0 0 0 0 0 0
0 0 0 0 0 0 0 0 0 0 0 0 0 0 0 0 0 0 0 0 0 0 0 0 0 0 0 0 0 0 0 0 0 0 0 0 0 0 0 0 0 0 0 0 0 0 0 0 0
0 0 0 0 0 0 0 0 0 0 0 0 0 0 0 0 0 0 0 0 0 0 0 0 0 0 0 0 0 0 0 0 0 0 0 0 0 0 0 0 0 0 0 0 0 0 0 0 0
0 0 0 0 0 0 0 0 0 0 0 0 0 0 0 0 0 0 0 0 0 0 0 0 0 0 0 0 0 0 0 0 0 0 0 0 0 0 0 0 0 0 0 0 0 0 0 0 0
0 0 0 0 0 0 0 0 0 0 0 0 0 0 0 0 0 0 0 0 0 0 0 0 0 0 0 0 0 0 0 0 0 0 0 0 0 0 0 0 0 0 0 0 0 0 0 0 0
0 0 0 0 0 0 0 0 0 0 0 0 0 0 0 0 0 0 0 0 0 0 0 0 0 0 0 0 0 0 0 0 0 0 0 0 0 0 0 0 0 0 0 0 0 0 0 0 0
0 0 0 0 0 0 0 0 0 0 0 0 0 0 1 1 0 0 0 0 0 0 0 0 0 -0 -0 0 0 0 0 0 0 0 0 0 0 0 0 0 0 0 0 0 0 0 0 0 0
0 0 0 0 0 0 0 0 0 0 0 0 0 1 1 1 0 0 0 0 0 0 0 0 0 0 0 0 0 0 0 0 0 0 0 0 0 0 0 0 0 0 0 0 0 0 0 0 0
0 0 0 0 0 0 0 0 0 0 0 0 0 1 1 1 0 0 0 0 0 0 0 0 0 0 0 0 0 0 0 0 0 0 0 0 0 0 0 0 0 0 0 0 0 0 0 0 -0
0 0 0 0 0 0 0 0 0 0 0 0 0 1 1 1 0 0 0 0 0 0 0 0 0 0 0 0 0 0 0 0 0 0 0 0 0 0 0 0 0 0 0 0 0 0 0 0 0
0 0 0 0 0 0 0 0 0 0 0 0 0 0 1 0 0 0 0 0 0 0 0 0 0 0 0 0 0 0 0 0 0 0 0 0 0 0 0 0 0 0 0 0 0 0 0 0 0
0 0 0 0 0 0 0 0 0 0 0 0 0 0 0 0 0 0 0 0 0 0 0 0 0 0 0 0 0 0 0 0 0 0 0 0 0 0 0 0 0 0 0 0 0 0 0 0 0
0 0 0 0 0 0 0 0 0 0 0 0 0 0 0 0 0 0 0 0 0 0 0 0 0 0 0 0 0 0 0 0 0 0 0 -0 -0 -0 -0 0 0 0 0 0 0 0 0 0 0
0 0 0 0 0 0 0 0 0 0 0 0 0 0 1 1 1 1 0 0 0 0 0 0 0 0 0 0 0 0 0 0 0 -0 -0 -0 -0 -0 -0 0 0 0 0 0 0 0 0 0 0
0 0 0 0 0 0 0 0 0 0 0 0 0 0 1 1 1 1 1 0 0 0 0 0 0 0 0 0 0 0 0 0 0 0 -0 -0 -0 -0 -0 -0 0 0 0 0 0 0 0 0 0
0 0 0 0 0 0 0 0 0 0 0 0 0 0 1 1 1 1 1 1 1 1 1 1 1 0 0 0 0 0 0 0 0 0 0 0 0 -0 -0 -0 0 0 0 0 0 0 0 0 0
0 0 0 0 0 0 0 0 0 0 0 0 0 0 0 1 1 1 1 1 1 1 1 1 1 1 0 0 0 0 0 0 0 0 0 0 0 0 0 -0 0 0 0 0 0 0 0 0 0
0 0 0 0 0 0 0 0 0 0 0 0 0 0 0 1 1 1 1 1 1 1 1 1 1 1 1 0 0 0 0 0 0 0 0 0 0 0 0 0 0 0 0 0 0 0 0 0 0
0 0 0 0 0 0 0 0 0 0 0 0 0 0 0 1 1 1 1 1 1 1 1 1 1 1 1 1 0 0 0 0 0 0 0 0 0 0 0 0 0 0 0 0 0 0 0 0 0
0 0 0 0 0 0 0 0 0 0 0 0 0 0 0 0 1 1 1 1 1 1 1 1 1 1 1 1 0 0 0 0 0 0 0 0 0 0 0 0 0 0 0 0 0 0 0 0 0
0 0 0 0 0 0 0 0 0 0 0 0 0 0 0 0 1 1 1 1 1 1 1 1 1 1 0 0 0 0 0 0 0 0 0 0 0 0 0 0 0 0 0 0 0 0 0 0 0
0 0 0 0 0 0 0 0 0 0 0 0 0 0 0 0 1 1 1 1 1 1 1 1 1 0 0 0 0 0 0 0 0 0 0 0 0 0 0 0 0 0 0 0 0 0 0 0 0
0 0 0 0 0 0 0 0 0 0 0 0 0 0 0 0 1 1 1 1 1 1 1 1 0 0 0 0 0 0 0 0 0 0 0 0 0 0 0 0 0 0 0 0 0 0 0 0 0
0 0 0 0 0 0 0 0 0 0 0 0 0 0 0 0 0 1 1 1 0 0 1 1 1 1 0 0 0 0 0 0 0 0 0 0 0 0 0 0 0 0 0 0 0 0 0 0 0
0 0 0 0 0 0 0 0 0 0 0 0 0 0 0 0 1 1 1 1 1 1 1 1 1 1 1 0 0 0 0 0 0 0 0 0 0 0 0 0 0 0 0 0 0 0 0 0 0
0 0 0 0 0 0 0 0 0 0 0 0 0 0 0 1 1 1 1 1 1 1 1 1 1 1 1 0 0 0 0 0 0 0 0 0 0 0 0 0 0 0 0 0 0 0 0 0 0
0 0 0 0 0 0 0 0 0 0 0 0 0 0 1 1 1 1 1 1 1 1 1 1 0 0 0 0 0 0 0 0 0 0 0 0 0 0 0 0 0 0 0 0 0 0 0 0 0
Wind_Speed
9 8 6 6 3 10 16 13 11 10 8 8 7 5 7 9 8 11 10 11 12 12 13 13 11 11 11 11 11 12 12 12 12 12 11 11 11 12 12 12 13 13 14 14 15 15 15 15 15
6 5 6 3 7 12 14 12 12 11 9 8 7 7 9 10 9 11 11 11 12 12 12 12 12 11 11 11 11 11 11 11 11 11 11 11 11 11 12 12 13 13 14 14 14 15 15 14 14
6 7 4 5 13 14 14 11 11 10 7 6 6 7 8 9 9 9 12 13 12 11 12 14 11 11 11 11 11 11 11 11 11 11 11 11 11 11 12 12 12 13 13 14 14 14 14 14 13
5 5 1 8 16 14 11 10 8 8 8 6 7 10 9 8 6 10 14 13 12 12 12 15 10 11 11 10 10 10 10 10 10 10 10 10 11 11 12 12 12 13 13 13 13 13 13 13 13
6 1 7 12 14 11 9 8 5 6 6 7 7 11 10 7 10 14 13 12 11 11 11 14 11 10 10 10 10 10 10 10 10 10 10 10 10 11 11 12 12 12 12 12 12 12 12 12 12
3 0 8 12 13 9 8 6 6 8 9 8 9 11 9 9 11 13 12 10 10 10 11 13 11 10 9 9 9 10 10 9 10 10 10 10 10 10 11 11 11 11 11 11 11 11 11 11 11
2 5 10 11 10 10 7 5 5 7 8 7 6 9 10 11 11 12 11 9 9 9 10 10 12 11 9 8 9 9 9 9 9 10 10 10 11 11 11 10 11 11 11 11 11 10 11 11 10
3 2 8 9 9 10 7 5 5 5 8 7 4 6 10 13 12 12 11 9 8 7 8 8 8 9 9 10 9 9 9 9 9 9 10 10 11 10 10 10 10 10 10 10 10 10 10 10 10
5 1 8 9 7 7 6 6 5 4 7 6 4 5 13 17 14 13 11 10 9 7 7 7 8 7 6 7 10 9 9 8 9 9 9 7 7 8 8 11 9 9 10 9 9 9 9 8 10
4 4 9 6 5 5 5 4 6 6 7 7 8 11 16 17 15 14 13 12 11 10 8 6 6 6 6 5 6 5 5 6 5 6 6 5 5 4 7 10 8 9 9 9 9 8 8 6 7
3 6 5 4 3 3 4 5 4 3 4 6 11 16 17 16 14 13 12 11 10 10 8 8 6 5 5 4 4 3 3 4 4 5 4 4 4 4 5 5 7 7 8 7 8 7 4 3 3
2 4 3 2 3 2 3 4 4 1 5 6 11 17 17 16 14 12 11 10 10 9 9 8 7 5 3 3 3 3 3 3 3 4 4 4 2 3 3 3 4 4 4 4 3 2 3 3 3
2 3 2 1 2 2 3 3 3 3 5 9 14 16 16 14 13 11 10 9 9 9 9 8 7 6 4 3 2 3 3 3 4 3 3 2 3 3 3 2 2 2 3 4 3 3 4 3 2
3 1 1 2 3 4 4 4 4 5 8 12 14 15 15 13 13 11 11 10 10 10 9 8 8 7 6 4 3 2 3 2 3 3 4 3 2 3 3 3 3 2 2 2 2 3 3 2 2
2 3 4 3 3 3 4 5 4 7 9 11 12 12 13 12 12 12 11 11 11 10 9 9 9 8 7 6 5 3 3 4 3 3 4 4 3 3 2 2 3 3 3 3 3 3 2 3 3
6 6 4 5 2 3 7 3 7 7 10 11 11 12 12 12 12 11 11 10 10 10 10 10 9 9 8 6 5 3 3 3 3 3 3 4 3 3 3 2 2 3 3 3 3 3 2 2 2
7 5 2 5 2 3 6 1 6 6 9 10 11 11 11 11 11 11 11 10 10 10 10 10 9 8 8 7 5 5 3 3 3 3 3 4 5 5 4 3 2 3 3 2 3 2 2 2 2
3 3 3 2 2 4 6 2 5 6 8 9 9 10 10 11 11 11 10 10 10 10 10 10 9 8 8 6 5 4 5 5 4 4 4 5 5 5 5 4 4 4 3 3 2 2 2 2 3
2 4 2 1 1 4 4 3 4 6 7 8 9 9 10 9 10 10 11 11 11 11 11 11 11 10 8 6 6 6 5 5 5 5 5 6 6 5 5 4 4 5 4 4 4 4 4 4 3
5 6 4 3 1 3 3 3 3 6 7 7 8 9 9 9 9 10 11 11 12 12 11 11 11 10 9 7 5 4 4 4 4 4 4 6 6 6 6 5 4 4 4 4 4 4 3 3 3
7 6 3 2 2 5 5 7 6 6 6 6 7 7 8 9 10 11 11 11 11 11 11 9 10 10 10 8 6 5 4 4 4 5 5 6 6 6 5 5 5 4 5 5 5 5 6 4 4
7 3 3 4 7 3 4 5 6 6 7 7 7 7 8 9 10 10 11 11 11 10 10 10 10 10 10 9 8 8 6 6 5 4 4 5 5 6 6 5 5 5 5 4 6 6 5 5 5
2 2 3 5 6 6 5 8 3 6 6 6 7 7 7 8 9 10 10 10 9 9 9 9 9 9 10 9 8 7 7 5 4 4 4 4 4 5 5 5 5 5 5 5 5 4 6 5 5
6 6 5 7 8 8 3 7 3 3 2 3 6 6 6 7 8 8 8 8 8 8 8 9 9 9 9 9 8 8 7 6 5 5 4 4 4 4 5 5 4 5 4 5 5 5 6 6 6
10 9 8 9 8 5 3 6 2 3 1 2 4 7 7 8 9 9 9 9 8 8 9 9 9 8 8 8 7 7 7 6 6 5 4 4 3 3 3 4 4 4 4 5 5 5 5 6 6
12 13 9 7 6 4 6 6 1 3 2 2 4 7 8 9 9 9 9 8 8 9 9 9 9 8 8 7 7 6 6 5 4 5 4 4 3 2 2 3 4 4 4 4 4 5 5 5 5
11 12 9 8 6 6 4 3 3 5 5 5 7 8 9 9 9 9 9 8 8 8 8 9 9 8 7 7 6 5 5 5 4 4 4 3 3 3 3 3 3 3 4 4 4 3 4 4 5
7 8 7 9 8 9 6 7 3 6 6 7 8 9 9 10 10 9 9 8 8 8 8 8 8 8 7 7 5 4 5 5 4 4 4 3 2 2 2 3 3 3 3 3 3 3 3 3 3
9 9 9 8 8 8 6 3 3 3 4 6 8 9 10 10 10 10 9 8 8 8 8 8 7 7 7 6 5 4 4 4 4 3 3 3 3 2 3 3 3 3 3 3 3 3 3 3 3
11 12 12 10 8 8 8 2 5 2 3 5 7 8 9 9 9 10 9 8 8 8 7 7 7 7 6 6 5 4 3 3 3 3 3 3 3 3 2 2 3 3 3 3 3 3 3 2 2
Wind_Direction
189 195 219 234 156 75 68 68 72 79 75 72 72 55 56 43 36 81 108 121 124 125 123 127 117 115 113 112 110 109 109 110 109 107 106 105 103 103 103 103 103 104 105 106 107 107 107 108 107
189 204 231 237 72 77 72 68 69 69 87 96 85 80 77 69 68 103 124 128 133 128 128 120 118 117 114 112 110 109 110 110 109 108 107 105 104 103 103 104 105 106 106 106 106 108 109 109 109
201 234 269 70 64 68 75 74 82 90 97 99 91 65 62 80 101 115 125 138 135 123 120 113 123 119 116 113 112 111 111 109 109 109 108 106 105 105 104 105 105 106 107 107 107 108 110 111 112
225 214 150 74 74 69 75 86 96 103 95 91 104 93 79 77 101 121 132 142 132 130 129 118 126 122 119 117 115 113 112 111 109 108 108 107 107 106 104 105 104 105 107 108 107 108 111 114 114
240 231 92 80 76 77 78 85 92 90 92 100 103 103 94 86 111 126 138 139 135 131 125 123 128 126 124 121 119 116 113 112 110 108 108 107 107 107 107 108 106 106 107 109 110 112 114 116 114
236 94 78 80 81 85 91 97 94 89 101 106 112 108 96 119 130 136 139 141 133 131 126 123 130 129 128 126 124 121 117 113 109 108 106 105 107 109 108 110 110 110 110 112 115 117 117 116 116
346 58 72 76 86 90 86 92 91 105 112 111 117 111 120 136 137 140 136 134 131 132 129 134 140 139 135 127 124 123 119 115 112 109 108 109 108 108 110 111 113 112 111 112 114 116 115 115 117
312 94 83 74 73 83 99 103 90 95 101 114 133 126 140 145 145 142 138 137 132 133 130 136 139 138 147 139 129 125 121 118 116 114 114 114 116 116 121 123 113 114 115 114 114 113 113 115 119
267 102 73 65 61 86 114 120 109 110 124 127 107 91 123 140 149 148 147 146 145 145 143 145 138 143 143 135 132 140 133 129 139 129 127 150 136 127 137 104 117 120 120 117 117 116 119 128 130
283 65 63 53 54 82 118 122 133 152 147 139 124 112 128 146 157 161 160 160 159 157 155 150 146 146 144 134 135 147 145 141 145 125 139 132 110 105 106 113 120 125 125 127 122 129 150 178 142
354 45 65 70 65 85 128 137 154 172 146 156 156 147 151 157 165 168 165 165 159 158 160 159 156 150 148 145 144 140 131 133 133 125 128 120 132 129 127 136 141 144 155 145 140 164 155 128 110
29 53 40 53 85 127 123 132 144 97 58 112 149 152 158 165 170 170 168 164 158 163 166 161 157 159 163 159 149 157 150 149 138 135 160 143 134 127 117 138 133 148 140 127 137 129 115 112 122
52 47 40 83 151 140 142 135 118 107 108 125 141 154 164 169 168 168 164 164 166 171 172 168 168 165 167 173 199 157 153 159 143 143 145 155 153 144 133 128 137 149 132 147 148 141 127 136 147
18 13 92 118 136 150 166 145 145 126 131 139 151 162 169 171 170 166 171 175 177 179 177 173 177 175 180 183 189 174 169 164 162 165 158 184 171 147 159 157 156 150 154 135 153 155 162 176 156
247 214 148 119 151 162 194 167 153 145 149 155 163 167 170 174 176 177 179 182 182 181 180 181 182 182 189 192 193 190 191 182 180 175 174 190 192 164 191 171 178 161 162 164 192 184 191 192 188
224 225 188 121 164 175 238 134 118 149 167 169 169 170 175 179 185 183 183 184 183 182 183 188 190 184 189 194 201 208 204 191 191 187 186 196 197 195 210 197 184 170 190 190 189 204 204 199 212
215 222 179 137 163 203 239 113 121 161 178 175 176 176 179 180 190 185 187 185 185 186 186 187 194 188 191 192 197 206 200 211 211 197 200 194 204 205 213 208 182 194 198 209 222 184 213 212 221
210 217 190 170 131 229 231 185 144 172 190 182 180 182 184 187 189 186 186 185 185 185 185 185 194 191 191 192 193 205 208 208 212 209 207 208 211 212 221 210 203 213 205 212 218 208 220 231 234
258 248 221 100 74 245 228 210 169 178 193 188 187 188 190 193 183 180 181 184 183 185 185 187 193 187 188 192 199 202 207 211 208 209 209 212 220 215 218 230 204 218 215 221 215 215 210 223 226
222 231 209 152 110 262 237 223 185 186 201 201 198 195 195 188 179 179 183 185 188 187 189 190 193 191 195 196 204 212 212 218 211 212 204 216 220 221 217 223 226 218 216 217 222 222 235 234 222
219 241 231 193 178 208 243 214 192 185 197 202 209 204 197 192 186 182 186 189 191 190 189 191 191 191 197 193 198 204 204 220 208 210 207 217 220 221 230 224 232 232 230 215 220 225 230 240 236
215 213 229 218 236 207 263 266 176 184 194 200 202 200 199 194 191 187 188 191 193 190 187 191 190 193 194 193 202 205 210 214 216 217 210 212 218 224 225 226 229 234 238 230 232 225 235 238 243
212 140 206 232 249 255 229 275 165 175 200 194 192 194 193 191 189 188 189 187 187 186 184 187 188 191 193 197 200 208 217 219 220 217 212 219 215 225 228 223 225 228 237 232 241 239 239 238 242
150 165 183 228 243 245 242 271 244 155 195 178 172 178 178 176 175 178 177 175 180 182 181 182 185 192 191 196 201 208 215 216 219 221 216 215 211 219 220 225 225 232 238 233 235 237 234 246 252
201 211 216 219 224 231 141 253 288 83 119 208 177 171 170 169 170 171 173 174 177 178 179 179 181 188 190 195 202 209 214 215 218 226 218 224 224 219 211 228 226 234 236 238 238 238 245 242 246
212 228 242 253 246 195 179 242 107 105 147 180 172 161 164 167 166 168 170 171 173 175 177 177 178 182 187 190 195 205 210 216 217 221 229 222 233 231 217 224 228 234 239 242 237 245 242 244 249
208 229 250 254 265 267 224 220 192 160 174 171 163 163 166 165 161 164 165 167 169 172 176 176 178 180 184 187 188 196 207 220 222 215 222 225 228 223 214 223 225 231 237 243 241 248 250 251 253
262 228 219 241 243 246 225 228 207 168 172 171 173 171 166 163 161 163 163 165 165 166 168 172 175 177 181 182 188 185 195 202 214 223 218 221 221 226 224 230 237 239 238 236 239 249 251 254 260
192 210 227 236 249 257 245 205 104 171 179 181 177 173 168 167 163 162 161 160 158 158 160 165 168 171 173 175 176 185 185 191 201 212 214 211 220 224 233 236 239 244 244 238 232 246 246 249 265
226 221 214 224 224 247 269 186 108 154 178 180 171 165 165 164 163 161 158 156 157 158 158 160 163 166 167 163 164 170 175 183 197 201 206 204 211 222 227 237 237 245 244 235 232 242 246 249 266